1514530800.74,45055,5.69,71806.5,-9.65,-10.31,-10.35,0,*5F
1514530801.95,45056,5.69,71806.3,-9.63,-10.31,-10.31,0,*5E
1514530803.16,45057,5.69,71802.5,-9.63,-10.31,-10.35,0,*5B
1514530804.36,45058,5.69,71806.5,-9.63,-10.31,-10.31,0,*50
1514530805.57,45059,5.75,71804.0,-9.63,-10.31,-10.31,0,*51
1514530806.77,45060,5.69,71802.3,-9.63,-10.31,-10.31,0,*5B
1514530807.98,45061,5.69,71804.3,-9.63,-10.23,-10.31,0,*59
1514530809.18,45062,5.69,71806.8,-9.63,-10.23,-10.23,0,*59
1514530810.42,45063,5.69,71802.5,-9.65,-10.35,-10.31,0,*5A
1514530811.62,45064,5.69,71796.3,-9.63,-10.23,-10.31,0,*5C
1514530812.85,45065,5.69,71802.3,-9.65,-10.23,-10.31,0,*5B
1514530814.08,45066,5.69,71802.0,-9.65,-10.23,-10.23,0,*5B
1514530815.29,45067,5.69,71802.0,-9.63,-10.23,-10.31,0,*5F
1514530816.52,45068,5.69,71798.3,-9.65,-10.31,-10.31,0,*55
1514530817.75,45069,5.69,71802.0,-9.65,-10.23,-10.31,0,*57
1514530818.95,45070,5.69,71800.5,-9.63,-10.31,-10.31,0,*5A
1514530820.16,45071,5.69,71802.0,-9.63,-10.31,-10.31,0,*5B
1514530821.4,45072,5.69,71800.3,-9.65,-10.35,-10.31,0,*5A
1514530822.63,45073,5.69,71800.0,-9.65,-10.35,-10.23,0,*58
1514530823.86,45074,5.69,71806.0,-9.65,-10.31,-10.35,0,*5C
1514530825.1,45075,5.69,71800.0,-9.65,-10.31,-10.31,0,*59
1514530826.33,45076,5.75,71806.5,-9.65,-10.23,-10.31,0,*59
1514530827.56,45077,5.69,71802.8,-9.65,-10.23,-10.19,0,*52
1514530828.79,45078,5.69,71798.3,-9.65,-10.23,-10.23,0,*54
1514530830.0,45079,5.69,71802.8,-9.63,-10.19,-10.23,0,*5A
1514530831.2,45080,5.75,71804.8,-9.63,-10.23,-10.23,0,*55
1514530832.4,45081,5.69,71804.8,-9.63,-10.23,-10.23,0,*54
1514530833.61,45082,5.69,71806.3,-9.63,-10.23,-10.19,0,*5E
1514530834.83,45083,5.69,71800.0,-9.65,-10.23,-10.23,0,*50
1514530836.05,45084,5.69,71802.3,-9.63,-10.19,-10.19,0,*51
1514530837.25,45085,5.69,71802.8,-9.63,-10.19,-10.23,0,*59
1514530838.48,45086,5.69,71804.8,-9.65,-10.23,-10.23,0,*55
1514530839.68,45087,5.69,71806.8,-9.63,-10.23,-10.23,0,*52
1514530840.88,45088,5.75,71806.3,-9.63,-10.23,-10.23,0,*5D
1514530842.08,45089,5.69,71806.0,-9.63,-10.23,-10.23,0,*5C
1514530843.29,45090,5.69,71804.5,-9.63,-10.31,-10.19,0,*5E
1514530844.52,45091,5.69,71806.0,-9.65,-10.31,-10.23,0,*50
1514530845.75,45092,5.69,71806.8,-9.65,-10.23,-10.23,0,*50
1514530846.98,45093,5.69,71804.3,-9.65,-10.19,-10.23,0,*58
1514530848.19,45094,5.69,71806.5,-9.63,-10.19,-10.23,0,*59
1514530849.42,45095,5.69,71804.3,-9.65,-10.19,-10.23,0,*5E
1514530850.62,45096,5.69,71804.5,-9.63,-10.19,-10.23,0,*5B
1514530851.86,45097,5.69,71804.0,-9.65,-10.19,-10.19,0,*55
1514530853.07,45098,5.69,71806.0,-9.63,-10.19,-10.19,0,*5C
1514530854.31,45099,5.75,71808.8,-9.65,-10.19,-10.19,0,*5B
1514530855.51,45100,5.69,71806.3,-9.63,-10.23,-10.23,0,*5C
1514530856.72,45101,5.69,71802.5,-9.63,-10.19,-10.23,0,*54
1514530857.92,45102,5.69,71800.0,-9.63,-10.19,-10.23,0,*57
1514530859.15,45103,5.69,71800.5,-9.65,-10.23,-10.23,0,*59
1514530860.35,45104,5.69,71804.3,-9.63,-10.23,-10.23,0,*58
1514530861.56,45105,5.69,71804.0,-9.63,-10.23,-10.19,0,*50
1514530862.76,45106,5.69,71802.8,-9.63,-10.31,-10.23,0,*59
1514530863.97,45107,5.69,71804.3,-9.63,-10.31,-10.23,0,*58
1514530865.2,45108,5.69,71804.3,-9.65,-10.35,-10.23,0,*55
1514530866.4,45109,5.75,71806.3,-9.63,-10.23,-10.23,0,*55
1514530867.63,45110,5.69,71802.0,-9.65,-10.19,-10.23,0,*52
1514530868.84,45111,5.69,71802.0,-9.63,-10.23,-10.19,0,*55
1514530870.07,45112,5.69,71800.3,-9.65,-10.23,-10.23,0,*59
1514530871.27,45113,5.69,71800.0,-9.63,-10.23,-10.23,0,*5E
1514530872.47,45114,5.69,71802.5,-9.63,-10.19,-10.23,0,*50
1514530873.7,45115,5.69,71800.0,-9.65,-10.31,-10.23,0,*5D
1514530874.91,45116,5.69,71802.5,-9.63,-10.31,-10.23,0,*58
1514530876.14,45117,5.69,71800.3,-9.65,-10.23,-10.19,0,*55
1514530877.37,45118,5.69,71800.5,-9.65,-10.23,-10.31,0,*50
1514530878.57,45119,5.69,71802.8,-9.63,-10.23,-10.31,0,*57
1514530879.78,45120,5.69,71800.3,-9.63,-10.31,-10.23,0,*5D
1514530881.01,45121,5.69,71802.5,-9.65,-10.31,-10.23,0,*5A
1514530882.21,45122,5.69,71802.5,-9.63,-10.31,-10.31,0,*5C
1514530883.42,45123,5.69,71804.5,-9.63,-10.23,-10.19,0,*54
1514530884.65,45124,5.75,71804.3,-9.65,-10.31,-10.23,0,*5F
1514530885.88,45125,5.69,71802.8,-9.65,-10.31,-10.23,0,*5E
1514530887.11,45126,5.75,71804.3,-9.65,-10.23,-10.23,0,*5E
1514530888.31,45127,5.75,71804.0,-9.63,-10.31,-10.23,0,*5A
1514530889.54,45128,5.69,71806.0,-9.65,-10.23,-10.19,0,*59
1514530890.78,45129,5.69,71804.5,-9.65,-10.23,-10.19,0,*58
1514530892.01,45130,5.69,71806.5,-9.65,-10.19,-10.19,0,*59
1514530893.25,45131,5.69,71806.8,-9.65,-10.23,-10.19,0,*51
1514530894.48,45132,5.69,71806.0,-9.65,-10.19,-10.23,0,*52
1514530895.69,45133,5.69,71806.0,-9.63,-10.23,-10.19,0,*55
1514530896.92,45134,5.69,71804.5,-9.65,-10.23,-10.23,0,*5D
1514530898.12,45135,5.69,71804.5,-9.63,-10.23,-10.23,0,*5A
1514530899.35,45136,5.69,71806.3,-9.65,-10.19,-10.23,0,*56
1514530900.58,45137,5.69,71804.5,-9.65,-10.23,-10.23,0,*5E
1514530901.78,45138,5.69,71806.5,-9.63,-10.31,-10.23,0,*54
1514530902.99,45139,5.75,71808.8,-9.63,-10.31,-10.35,0,*52
1514530904.22,45140,5.69,71808.5,-9.65,-10.23,-10.35,0,*59
1514530905.43,45141,5.69,71808.0,-9.63,-10.31,-10.35,0,*5D
1514530906.67,45142,5.69,71806.0,-9.65,-10.35,-10.31,0,*58
1514530907.9,45143,5.69,71808.0,-9.65,-10.31,-10.31,0,*5D
1514530909.11,45144,5.69,71808.8,-9.63,-10.31,-10.31,0,*5C
1514530910.34,45145,5.69,71808.3,-9.67,-10.41,-10.35,0,*5A
1514530911.57,45146,5.75,71810.5,-9.65,-10.31,-10.31,0,*58
1514530912.81,45147,5.69,71804.0,-9.65,-10.35,-10.31,0,*5D
1514530914.02,45148,5.75,71806.8,-9.63,-10.35,-10.35,0,*50
1514530915.26,45149,5.69,71806.0,-9.65,-10.35,-10.31,0,*53
1514530916.47,45150,5.69,71804.5,-9.67,-10.35,-10.35,0,*5D
1514530917.7,45151,5.69,71806.3,-9.65,-10.31,-10.31,0,*5E
1514530918.94,45152,5.75,71808.8,-9.65,-10.35,-10.31,0,*59
1514530920.17,45153,5.75,71810.5,-9.65,-10.23,-10.31,0,*5F
1514530921.41,45154,5.69,71806.0,-9.65,-10.31,-10.35,0,*5F
1514530922.64,45155,5.69,71806.5,-9.65,-10.23,-10.31,0,*59
1514530923.84,45156,5.69,71806.0,-9.63,-10.31,-10.31,0,*5F
1514530925.05,45157,5.69,71802.8,-9.67,-10.35,-10.31,0,*5E
1514530926.28,45158,5.69,71804.5,-9.65,-10.31,-10.31,0,*57
1514530927.51,45159,5.69,71804.5,-9.65,-10.31,-10.23,0,*55
1514530928.74,45160,5.69,71804.3,-9.65,-10.31,-10.23,0,*5F
1514530929.98,45161,5.69,71804.5,-9.65,-10.31,-10.31,0,*5D
1514530931.21,45162,5.69,71806.3,-9.65,-10.31,-10.31,0,*5E
1514530932.44,45163,5.69,71806.5,-9.65,-10.31,-10.35,0,*5B
1514530933.68,45164,5.69,71804.8,-9.67,-10.35,-10.41,0,*59
1514530934.91,45165,5.69,71806.3,-9.67,-10.35,-10.41,0,*58
1514530936.15,45166,5.69,71806.5,-9.67,-10.41,-10.35,0,*5B
1514530937.36,45167,5.69,71808.3,-9.67,-10.35,-10.35,0,*59
1514530938.57,45168,5.69,71804.8,-9.67,-10.35,-10.35,0,*56
1514530939.83,45169,5.69,71806.5,-9.67,-10.41,-10.41,0,*57
1514530941.04,45170,5.69,71810.8,-9.67,-10.49,-10.35,0,*54
1514530942.27,45171,5.75,71810.5,-9.65,-10.31,-10.35,0,*58
1514530943.49,45172,5.69,71810.5,-9.67,-10.35,-10.35,0,*5D
1514530944.72,45173,5.69,71808.5,-9.67,-10.27,-10.41,0,*5C
1514530945.95,45174,5.69,71806.5,-9.67,-10.41,-10.35,0,*58
1514530947.16,45175,5.69,71804.0,-9.67,-10.35,-10.35,0,*5A
1514530948.38,45176,5.69,71810.0,-9.67,-10.35,-10.35,0,*59
1514530949.61,45177,5.69,71804.0,-9.67,-10.35,-10.41,0,*5B
1514530950.82,45178,5.69,71808.3,-9.67,-10.35,-10.35,0,*57
1514530952.04,45179,5.69,71808.8,-9.67,-10.35,-10.35,0,*56
1514530953.25,45180,5.69,71806.0,-9.71,-10.35,-10.35,0,*57
1514530954.48,45181,5.69,71804.8,-9.67,-10.41,-10.35,0,*52
1514530955.74,45182,5.69,71804.0,-9.67,-10.41,-10.41,0,*52
1514530956.98,45183,5.69,71808.0,-9.65,-10.35,-10.31,0,*55
1514530958.21,45184,5.69,71808.3,-9.67,-10.41,-10.35,0,*57
1514530959.43,45185,5.69,71802.3,-9.71,-10.35,-10.35,0,*52
1514530960.64,45186,5.75,71808.8,-9.67,-10.35,-10.35,0,*56
1514530961.85,45187,5.69,71808.5,-9.67,-10.35,-10.35,0,*57
1514530963.09,45188,5.69,71810.0,-9.71,-10.41,-10.35,0,*5C
1514530964.32,45189,5.69,71808.5,-9.71,-10.35,-10.41,0,*5D
1514530965.56,45190,5.69,71808.5,-9.67,-10.41,-10.35,0,*52
1514530966.77,45191,5.69,71806.3,-9.67,-10.35,-10.35,0,*50
1514530968.0,45192,5.69,71806.5,-9.67,-10.41,-10.35,0,*50
1514530969.22,45193,5.69,71810.3,-9.67,-10.35,-10.35,0,*52
1514530970.45,45194,5.69,71810.0,-9.67,-10.27,-10.41,0,*55
1514530971.68,45195,5.69,71808.0,-9.67,-10.35,-10.41,0,*57
1514530972.9,45196,5.69,71808.0,-9.67,-10.35,-10.35,0,*57
1514530974.15,45197,5.69,71808.8,-9.67,-10.41,-10.41,0,*56
1514530975.37,45198,5.69,71806.8,-9.67,-10.35,-10.35,0,*59
1514530976.6,45199,5.69,71806.8,-9.71,-10.35,-10.41,0,*5C
1514530977.81,45200,5.69,71808.8,-9.71,-10.35,-10.35,0,*5C
1514530979.03,45201,5.69,71806.0,-9.67,-10.35,-10.35,0,*5A
1514530980.26,45202,5.69,71808.3,-9.67,-10.35,-10.41,0,*5A
1514530981.47,45203,5.69,71808.0,-9.67,-10.35,-10.35,0,*58
1514530982.71,45204,5.69,71808.3,-9.71,-10.41,-10.35,0,*5B
1514530983.94,45205,5.69,71810.5,-9.67,-10.41,-10.27,0,*5E
1514530985.16,45206,5.69,71810.5,-9.67,-10.35,-10.35,0,*5D
1514530986.36,45207,5.69,71808.3,-9.67,-10.27,-10.35,0,*5F
1514530987.57,45208,5.69,71810.0,-9.67,-10.27,-10.27,0,*53
1514530988.78,45209,5.69,71808.8,-9.67,-10.27,-10.27,0,*52
1514530989.99,45210,5.69,71810.0,-9.67,-10.23,-10.27,0,*5E
1514530991.19,45211,5.69,71804.8,-9.67,-10.27,-10.27,0,*5B
1514530992.39,45212,5.75,71810.3,-9.71,-10.23,-10.23,0,*5F
1514530993.6,45213,5.69,71808.0,-9.67,-10.27,-10.27,0,*59
1514530994.81,45214,5.69,71806.5,-9.67,-10.23,-10.27,0,*5A
1514530996.01,45215,5.69,71808.5,-9.67,-10.27,-10.27,0,*5F
1514530997.22,45216,5.69,71806.8,-9.67,-10.27,-10.27,0,*5C
1514530998.43,45217,5.75,71810.5,-9.71,-10.27,-10.27,0,*5A
1514530999.64,45218,5.69,71806.3,-9.71,-10.27,-10.27,0,*55
1514531000.85,45219,5.69,71808.5,-9.67,-10.35,-10.27,0,*50
1514531002.06,45220,5.69,71806.0,-9.67,-10.35,-10.35,0,*59
1514531003.3,45221,5.69,71806.0,-9.67,-10.35,-10.41,0,*5B
1514531004.51,45222,5.75,71808.8,-9.67,-10.35,-10.35,0,*5B
1514531005.72,45223,5.69,71806.8,-9.71,-10.35,-10.35,0,*5D
1514531006.93,45224,5.69,71806.5,-9.67,-10.35,-10.35,0,*5D
1514531008.15,45225,5.69,71804.5,-9.71,-10.35,-10.35,0,*5B
1514531009.36,45226,5.69,71810.0,-9.67,-10.35,-10.35,0,*5F
1514531010.59,45227,5.69,71804.5,-9.67,-10.41,-10.35,0,*5D
1514531011.8,45228,5.69,71804.5,-9.71,-10.27,-10.35,0,*55
1514531013.06,45229,5.69,71804.3,-9.67,-10.41,-10.41,0,*50
1514531014.27,45230,5.69,71808.5,-9.67,-10.35,-10.27,0,*5B
1514531015.48,45231,5.69,71808.0,-9.71,-10.27,-10.35,0,*5D
1514531016.69,45232,5.69,71806.3,-9.67,-10.27,-10.35,0,*59
1514531017.9,45233,5.69,71806.3,-9.67,-10.35,-10.35,0,*5B
1514531019.11,45234,5.69,71808.8,-9.71,-10.27,-10.35,0,*58
1514531020.34,45235,5.69,71806.0,-9.67,-10.41,-10.27,0,*5D
1514531021.56,45236,5.69,71806.5,-9.71,-10.35,-10.35,0,*59
1514531022.76,45237,5.69,71806.0,-9.67,-10.27,-10.27,0,*5F
1514531023.97,45238,5.75,71810.3,-9.67,-10.27,-10.27,0,*50
1514531025.18,45239,5.69,71806.3,-9.71,-10.35,-10.27,0,*55
1514531026.39,45240,5.69,71806.8,-9.67,-10.35,-10.27,0,*5C
1514531027.6,45241,5.69,71806.8,-9.67,-10.35,-10.27,0,*5D
1514531028.82,45242,5.69,71804.5,-9.71,-10.35,-10.35,0,*5A
1514531030.03,45243,5.69,71810.0,-9.71,-10.35,-10.35,0,*5B
1514531031.24,45244,5.75,71808.3,-9.67,-10.35,-10.35,0,*5B
1514531032.45,45245,5.69,71806.3,-9.71,-10.35,-10.35,0,*5D
1514531033.69,45246,5.69,71808.3,-9.71,-10.35,-10.41,0,*5D
1514531034.95,45247,5.69,71810.3,-9.67,-10.41,-10.41,0,*58
1514531036.21,45248,5.69,71810.3,-9.71,-10.41,-10.41,0,*50
1514531037.44,45249,5.69,71806.3,-9.71,-10.41,-10.49,0,*59
1514531038.65,45250,5.69,71808.5,-9.71,-10.49,-10.35,0,*52
1514531039.88,45251,5.75,71812.5,-9.71,-10.49,-10.41,0,*50
1514531041.11,45252,5.69,71804.0,-9.71,-10.49,-10.41,0,*53
1514531042.34,45253,5.69,71810.3,-9.71,-10.49,-10.41,0,*52
1514531043.54,45254,5.69,71808.8,-9.71,-10.49,-10.49,0,*5D
1514531044.74,45255,5.69,71810.0,-9.71,-10.49,-10.49,0,*5C
1514531045.94,45256,5.69,71810.8,-9.71,-10.49,-10.49,0,*5F
1514531047.14,45257,5.69,71808.3,-9.71,-10.53,-10.49,0,*55
1514531048.37,45258,5.69,71806.5,-9.73,-10.45,-10.45,0,*53
1514531049.57,45259,5.69,71808.3,-9.71,-10.49,-10.49,0,*50
1514531050.77,45260,5.69,71810.5,-9.71,-10.49,-10.53,0,*51
1514531052.0,45261,5.69,71804.8,-9.71,-10.49,-10.41,0,*53
1514531053.23,45262,5.69,71806.0,-9.73,-10.57,-10.53,0,*5E
1514531054.45,45263,5.69,71804.8,-9.73,-10.53,-10.53,0,*5B
1514531055.68,45264,5.69,71808.3,-9.73,-10.57,-10.53,0,*58
1514531056.91,45265,5.69,71808.3,-9.73,-10.53,-10.53,0,*5D
1514531058.14,45266,5.69,71810.0,-9.73,-10.57,-10.53,0,*5A
1514531059.39,45267,5.69,71804.0,-9.73,-10.53,-10.41,0,*5C
1514531060.65,45268,5.69,71808.0,-9.71,-10.41,-10.41,0,*52
1514531061.85,45269,5.69,71810.3,-9.71,-10.49,-10.49,0,*53
1514531063.08,45270,5.69,71808.5,-9.73,-10.45,-10.53,0,*5E
1514531064.31,45271,5.69,71812.0,-9.73,-10.45,-10.53,0,*5F
1514531065.53,45272,5.69,71808.5,-9.73,-10.45,-10.53,0,*5C
1514531066.76,45273,5.69,71808.0,-9.73,-10.53,-10.53,0,*5A
1514531067.99,45274,5.69,71808.5,-9.71,-10.41,-10.49,0,*57
1514531069.22,45275,5.69,71810.8,-9.71,-10.49,-10.41,0,*56
1514531070.42,45276,5.69,71810.0,-9.75,-10.57,-10.53,0,*5D
1514531071.65,45277,5.69,71808.3,-9.73,-10.45,-10.53,0,*59
1514531072.91,45278,5.69,71810.5,-9.73,-10.45,-10.41,0,*55
1514531074.11,45279,5.75,71812.3,-9.75,-10.53,-10.45,0,*51
1514531075.37,45280,5.69,71812.3,-9.73,-10.45,-10.41,0,*52
1514531076.59,45281,5.69,71804.8,-9.73,-10.45,-10.45,0,*57
1514531077.82,45282,5.69,71812.0,-9.73,-10.53,-10.45,0,*53
1514531079.04,45283,5.69,71810.3,-9.73,-10.53,-10.45,0,*52
1514531080.27,45284,5.69,71814.0,-9.73,-10.45,-10.53,0,*55
1514531081.5,45285,5.69,71812.0,-9.75,-10.41,-10.53,0,*56
1514531082.73,45286,5.69,71810.3,-9.73,-10.45,-10.53,0,*57
1514531083.96,45287,5.69,71808.8,-9.73,-10.45,-10.45,0,*51
1514531085.18,45288,5.69,71810.0,-9.73,-10.45,-10.53,0,*59
1514531086.38,45289,5.69,71808.3,-9.75,-10.53,-10.53,0,*59
1514531087.61,45290,5.69,71812.3,-9.73,-10.53,-10.53,0,*57
1514531088.81,45291,5.69,71812.5,-9.75,-10.53,-10.45,0,*57
1514531090.03,45292,5.69,71812.0,-9.73,-10.53,-10.53,0,*55
1514531091.26,45293,5.69,71814.3,-9.73,-10.53,-10.53,0,*54
1514531092.46,45294,5.69,71814.5,-9.75,-10.57,-10.57,0,*55
1514531093.67,45295,5.69,71808.8,-9.75,-10.57,-10.53,0,*50
1514531094.9,45296,5.69,71810.5,-9.73,-10.45,-10.53,0,*56
1514531096.1,45297,5.69,71810.8,-9.75,-10.45,-10.45,0,*56
1514531097.33,45298,5.69,71806.3,-9.75,-10.41,-10.53,0,*5A
1514531098.53,45299,5.69,71800.5,-9.75,-10.45,-10.57,0,*5B
1514531099.74,45300,5.69,71800.0,-9.75,-10.45,-10.53,0,*5E
1514531100.94,45301,5.69,71806.8,-9.75,-10.45,-10.45,0,*58
1514531102.14,45302,5.69,71806.0,-9.75,-10.45,-10.45,0,*5B
1514531103.38,45303,5.69,71810.5,-9.75,-10.41,-10.45,0,*5E
1514531104.61,45304,5.69,71804.5,-9.75,-10.45,-10.41,0,*59
1514531105.87,45305,5.69,71806.3,-9.75,-10.41,-10.41,0,*5C
1514531107.11,45306,5.69,71800.8,-9.75,-10.45,-10.41,0,*5B
1514531108.34,45307,5.69,71800.5,-9.75,-10.45,-10.41,0,*5A
1514531109.57,45308,5.69,71800.5,-9.75,-10.45,-10.41,0,*55
1514531110.83,45309,5.69,71804.3,-9.75,-10.41,-10.41,0,*50
1514531112.07,45310,5.69,71806.3,-9.75,-10.41,-10.31,0,*5F
1514531113.3,45311,5.69,71804.5,-9.75,-10.45,-10.41,0,*5D
1514531114.53,45312,5.69,71806.5,-9.75,-10.45,-10.41,0,*5E
1514531115.77,45313,5.69,71806.3,-9.75,-10.45,-10.41,0,*5F
1514531117.0,45314,5.69,71806.8,-9.77,-10.45,-10.45,0,*5E
1514531118.26,45315,5.69,71808.5,-9.75,-10.41,-10.41,0,*5D
1514531119.47,45316,5.69,71806.3,-9.75,-10.45,-10.45,0,*5E
1514531120.73,45317,5.69,71810.0,-9.75,-10.41,-10.41,0,*5F
1514531121.99,45318,5.69,71810.0,-9.75,-10.41,-10.41,0,*50
1514531123.28,45319,5.69,71808.0,-9.73,-10.41,-10.41,0,*57
1514531124.51,45320,5.69,71804.8,-9.75,-10.45,-10.41,0,*5F
1514531125.74,45321,5.75,71814.3,-9.77,-10.45,-10.45,0,*58
1514531126.98,45322,5.69,71806.5,-9.75,-10.45,-10.41,0,*5D
1514531128.21,45323,5.69,71808.0,-9.75,-10.45,-10.41,0,*5C
1514531129.47,45324,5.69,71806.5,-9.75,-10.41,-10.41,0,*5F
1514531130.71,45325,5.69,71806.8,-9.75,-10.41,-10.31,0,*59
1514531131.97,45326,5.69,71808.3,-9.75,-10.41,-10.41,0,*5D
1514531133.23,45327,5.69,71806.5,-9.73,-10.41,-10.31,0,*5D
1514531134.49,45328,5.75,71808.0,-9.75,-10.41,-10.41,0,*53
1514531135.72,45329,5.69,71806.0,-9.75,-10.41,-10.31,0,*55
1514531136.96,45330,5.69,71808.0,-9.75,-10.41,-10.31,0,*5D
1514531138.22,45331,5.69,71806.0,-9.73,-10.41,-10.27,0,*5D
1514531139.48,45332,5.75,71808.3,-9.75,-10.41,-10.41,0,*58
1514531140.72,45333,5.69,71810.0,-9.75,-10.31,-10.41,0,*5E
1514531141.92,45334,5.69,71804.3,-9.75,-10.31,-10.31,0,*5E
1514531143.16,45335,5.69,71804.8,-9.75,-10.31,-10.41,0,*58
1514531144.39,45336,5.69,71806.3,-9.75,-10.45,-10.41,0,*58
1514531145.66,45337,5.69,71808.3,-9.75,-10.41,-10.41,0,*5D
1514531146.94,45338,5.69,71808.5,-9.73,-10.41,-10.41,0,*54
1514531148.18,45339,5.69,71808.8,-9.75,-10.41,-10.31,0,*54
1514531149.41,45340,5.69,71808.5,-9.75,-10.41,-10.31,0,*5A
1514531150.67,45341,5.69,71810.3,-9.73,-10.41,-10.31,0,*5D
1514531151.93,45342,5.69,71808.8,-9.73,-10.41,-10.31,0,*5E
1514531153.17,45343,5.69,71806.0,-9.77,-10.45,-10.35,0,*5B
1514531154.4,45344,5.69,71806.0,-9.73,-10.31,-10.31,0,*5F
1514531155.61,45345,5.69,71810.8,-9.75,-10.31,-10.31,0,*58
1514531156.84,45346,5.69,71810.8,-9.75,-10.41,-10.31,0,*5C
1514531158.05,45347,5.75,71812.3,-9.75,-10.31,-10.31,0,*5A
1514531159.29,45348,5.69,71808.3,-9.75,-10.27,-10.41,0,*55
1514531160.52,45349,5.69,71808.8,-9.75,-10.41,-10.31,0,*53
1514531161.76,45350,5.69,71808.3,-9.75,-10.31,-10.41,0,*5B
1514531163.0,45351,5.69,71810.5,-9.75,-10.41,-10.31,0,*5A
1514531164.23,45352,5.69,71806.8,-9.77,-10.49,-10.45,0,*50
1514531165.47,45353,5.69,71810.3,-9.77,-10.35,-10.35,0,*5D
1514531166.68,45354,5.69,71810.3,-9.75,-10.31,-10.31,0,*58
1514531167.92,45355,5.69,71808.5,-9.75,-10.31,-10.41,0,*5E
1514531169.13,45356,5.69,71808.0,-9.75,-10.31,-10.31,0,*5A
1514531170.34,45357,5.69,71810.8,-9.75,-10.31,-10.31,0,*5B
1514531171.6,45358,5.69,71810.3,-9.75,-10.41,-10.41,0,*54
1514531172.83,45359,5.75,71814.5,-9.75,-10.41,-10.45,0,*51
1514531174.06,45360,5.69,71808.8,-9.75,-10.41,-10.45,0,*5B
1514531175.3,45361,5.69,71812.5,-9.75,-10.31,-10.41,0,*59
1514531176.56,45362,5.75,71814.5,-9.75,-10.41,-10.41,0,*5D
1514531177.82,45363,5.69,71810.5,-9.75,-10.41,-10.41,0,*5C
1514531179.06,45364,5.69,71812.3,-9.77,-10.45,-10.45,0,*59
1514531180.29,45365,5.69,71812.5,-9.75,-10.41,-10.45,0,*5E
1514531181.54,45366,5.69,71810.8,-9.73,-10.41,-10.45,0,*5B
1514531182.81,45367,5.69,71814.8,-9.75,-10.41,-10.41,0,*58
1514531184.01,45368,5.69,71814.5,-9.75,-10.45,-10.45,0,*57
1514531185.27,45369,5.69,71808.5,-9.75,-10.41,-10.41,0,*56
1514531186.53,45370,5.69,71812.5,-9.75,-10.41,-10.41,0,*5E
1514531187.77,45371,5.69,71810.5,-9.77,-10.49,-10.45,0,*51
1514531189.01,45372,5.69,71814.8,-9.77,-10.35,-10.45,0,*59
1514531190.24,45373,5.69,71812.5,-9.77,-10.45,-10.45,0,*5F
1514531191.47,45374,5.69,71812.3,-9.77,-10.49,-10.45,0,*54
1514531192.68,45375,5.69,71814.3,-9.79,-10.45,-10.45,0,*57
1514531193.91,45376,5.69,71814.5,-9.77,-10.49,-10.45,0,*56
1514531195.15,45377,5.69,71810.5,-9.77,-10.49,-10.45,0,*57
1514531196.38,45378,5.69,71812.8,-9.75,-10.31,-10.41,0,*51
1514531197.62,45379,5.69,71814.5,-9.75,-10.45,-10.41,0,*53
1514531198.85,45380,5.69,71808.8,-9.77,-10.45,-10.45,0,*53
1514531200.08,45381,5.69,71810.0,-9.77,-10.45,-10.45,0,*52
1514531201.32,45382,5.69,71812.5,-9.77,-10.45,-10.45,0,*51
1514531202.55,45383,5.69,71810.0,-9.77,-10.45,-10.49,0,*5C
1514531203.79,45384,5.69,71814.0,-9.77,-10.49,-10.49,0,*57
1514531205.02,45385,5.69,71812.5,-9.77,-10.49,-10.49,0,*56
1514531206.26,45386,5.69,71814.8,-9.77,-10.49,-10.49,0,*55
1514531207.49,45387,5.69,71810.5,-9.77,-10.49,-10.57,0,*5B
1514531208.72,45388,5.69,71810.0,-9.77,-10.49,-10.57,0,*54
1514531209.96,45389,5.69,71812.8,-9.77,-10.49,-10.49,0,*5A
1514531211.19,45390,5.69,71812.5,-9.77,-10.49,-10.49,0,*52
1514531212.43,45391,5.69,71812.5,-9.77,-10.49,-10.49,0,*53
1514531213.66,45392,5.69,71812.5,-9.77,-10.49,-10.45,0,*5C
1514531214.9,45393,5.69,71814.8,-9.77,-10.57,-10.49,0,*5E
1514531216.11,45394,5.69,71812.0,-9.79,-10.57,-10.57,0,*58
1514531217.34,45395,5.69,71814.5,-9.77,-10.49,-10.49,0,*57
1514531218.61,45396,5.69,71812.5,-9.77,-10.63,-10.57,0,*53
1514531219.84,45397,5.69,71812.0,-9.77,-10.57,-10.49,0,*5A
1514531221.08,45398,5.69,71810.8,-9.77,-10.45,-10.57,0,*59
1514531222.31,45399,5.69,71812.0,-9.77,-10.49,-10.57,0,*54
1514531223.54,45400,5.69,71810.8,-9.77,-10.49,-10.49,0,*5C
1514531224.75,45401,5.69,71810.5,-9.79,-10.49,-10.49,0,*53
1514531225.96,45402,5.69,71814.0,-9.79,-10.57,-10.49,0,*5F
1514531227.19,45403,5.69,71810.0,-9.77,-10.57,-10.49,0,*50
1514531228.43,45404,5.69,71814.0,-9.77,-10.49,-10.49,0,*58
1514531229.63,45405,5.69,71812.8,-9.79,-10.49,-10.57,0,*58
1514531230.87,45406,5.69,71810.8,-9.77,-10.49,-10.49,0,*5A
1514531232.1,45407,5.69,71812.0,-9.77,-10.49,-10.49,0,*5B
1514531233.34,45408,5.69,71814.5,-9.77,-10.49,-10.49,0,*54
1514531234.54,45409,5.69,71812.8,-9.79,-10.45,-10.49,0,*57
1514531235.75,45410,5.75,71818.0,-9.79,-10.49,-10.57,0,*5C
1514531236.95,45411,5.69,71812.0,-9.79,-10.49,-10.49,0,*52
1514531238.16,45412,5.69,71812.3,-9.79,-10.49,-10.45,0,*5D
1514531239.36,45413,5.69,71812.5,-9.79,-10.49,-10.45,0,*5C
1514531240.57,45414,5.69,71812.0,-9.79,-10.49,-10.49,0,*57
1514531241.77,45415,5.69,71812.3,-9.79,-10.49,-10.49,0,*56
1514531243.0,45416,5.69,71814.3,-9.77,-10.49,-10.49,0,*5B
1514531244.21,45417,5.69,71810.8,-9.79,-10.49,-10.49,0,*54
1514531245.42,45418,5.69,71812.8,-9.79,-10.49,-10.57,0,*54
1514531246.62,45419,5.69,71810.0,-9.79,-10.45,-10.45,0,*5A
1514531247.82,45420,5.69,71810.8,-9.79,-10.49,-10.49,0,*50
1514531249.03,45421,5.69,71812.3,-9.79,-10.49,-10.57,0,*5E
1514531250.23,45422,5.69,71806.3,-9.79,-10.49,-10.45,0,*5E
1514531251.44,45423,5.69,71812.8,-9.79,-10.45,-10.45,0,*53
1514531252.64,45424,5.69,71814.8,-9.79,-10.45,-10.49,0,*58
1514531253.85,45425,5.69,71810.0,-9.79,-10.45,-10.45,0,*55
1514531255.05,45426,5.69,71808.0,-9.79,-10.45,-10.45,0,*56
1514531256.25,45427,5.69,71804.8,-9.79,-10.45,-10.45,0,*57
1514531257.46,45428,5.69,71810.5,-9.79,-10.49,-10.45,0,*54
1514531258.66,45429,5.69,71814.8,-9.79,-10.45,-10.49,0,*55
1514531259.87,45430,5.69,71808.5,-9.79,-10.45,-10.45,0,*51
1514531261.1,45431,5.69,71812.3,-9.77,-10.49,-10.45,0,*52
1514531262.31,45432,5.69,71812.8,-9.79,-10.49,-10.45,0,*5F
1514531263.51,45433,5.69,71816.3,-9.81,-10.53,-10.49,0,*5E
1514531264.71,45434,5.69,71814.5,-9.79,-10.45,-10.45,0,*55
1514531265.91,45435,5.69,71814.8,-9.79,-10.49,-10.45,0,*58
1514531267.12,45436,5.69,71816.5,-9.79,-10.49,-10.49,0,*57
1514531268.32,45437,5.69,71812.5,-9.79,-10.49,-10.45,0,*5A
1514531269.53,45438,5.69,71818.8,-9.79,-10.35,-10.45,0,*5E
1514531270.74,45439,5.69,71814.5,-9.79,-10.49,-10.49,0,*58
1514531271.94,45440,5.69,71818.8,-9.79,-10.45,-10.45,0,*56
1514531273.15,45441,5.69,71810.3,-9.79,-10.45,-10.45,0,*57
1514531274.35,45442,5.75,71812.8,-9.79,-10.45,-10.45,0,*54
1514531275.56,45443,5.69,71808.5,-9.79,-10.45,-10.49,0,*59
1514531276.76,45444,5.69,71812.8,-9.79,-10.45,-10.45,0,*52
1514531277.97,45445,5.69,71812.8,-9.79,-10.45,-10.49,0,*5F
1514531279.17,45446,5.69,71814.0,-9.79,-10.45,-10.45,0,*50
1514531280.4,45447,5.69,71814.3,-9.77,-10.45,-10.45,0,*5F
1514531281.61,45448,5.69,71814.5,-9.79,-10.49,-10.45,0,*52
1514531282.81,45449,5.69,71814.8,-9.79,-10.45,-10.45,0,*5F
1514531284.02,45450,5.69,71812.5,-9.79,-10.45,-10.49,0,*5B
1514531285.25,45451,5.69,71812.3,-9.77,-10.49,-10.49,0,*58
1514531286.46,45452,5.69,71814.3,-9.79,-10.45,-10.45,0,*55
1514531287.66,45453,5.69,71812.3,-9.79,-10.45,-10.45,0,*54
1514531288.87,45454,5.69,71812.0,-9.79,-10.49,-10.45,0,*5F
1514531290.07,45455,5.69,71810.0,-9.79,-10.49,-10.45,0,*5E
1514531291.28,45456,5.69,71812.8,-9.79,-10.49,-10.45,0,*5D
1514531292.48,45457,5.69,71818.5,-9.79,-10.45,-10.45,0,*50
1514531293.68,45458,5.69,71812.8,-9.79,-10.49,-10.45,0,*53
1514531294.89,45459,5.69,71816.0,-9.79,-10.45,-10.49,0,*52
1514531296.09,45460,5.69,71812.8,-9.79,-10.45,-10.49,0,*58
1514531297.3,45461,5.69,71814.3,-9.79,-10.49,-10.45,0,*59